IVALO current weather conditions

sailwx.info

Wind from 230 at 4 knots

Air temperature -0.0° C
Dewpoint -2.0° C

Last reported at 2014-Oct-01 06:20 UTC.
Time now 2014-Oct-01 08:12 UTC

Location: N 68°37' E 027°25'.
View on Google Maps.

See reports from other nearby stations

  
Tides and Currents Weather Stations Pressure Air Temp Water Temp Dewpoint Dewpoint Depression Visibility Wind Speed Wind Dir Waves Ship Positions
date/time (UTC)wind fromknots sea level pressurealtimeterstation pressurevisibilityair tempwater tempwave heightnotes
2014-Oct-01 07:20 190 3 3.0
2014-Oct-01 06:50 220 3 1.0
2014-Oct-01 06:20 230 4 -0.0
2014-Oct-01 05:50 230 4 -0.0
2014-Oct-01 05:20 230 5 -0.0
2014-Oct-01 04:50 200 9 1.0
2014-Oct-01 04:20 230 5 -1.0
2014-Oct-01 03:50 210 2 -1.0
2014-Oct-01 03:20 240 3 5.4-2.0
2014-Oct-01 02:50 230 4 -2.0
2014-Oct-01 02:20 220 5 -2.0
2014-Oct-01 01:50 200 7 -1.0
2014-Oct-01 01:20 230 6 -2.0
2014-Oct-01 00:50 220 5 -2.0
2014-Oct-01 00:20 230 5 -3.0
2014-Sep-30 23:50 220 4 -2.0
2014-Sep-30 23:20 210 1 -2.0
2014-Sep-30 22:50 210 3 -2.0
2014-Sep-30 22:20 200 2 -2.0
2014-Sep-30 21:50 240 3 -2.0
2014-Sep-30 21:20 230 2 -1.0
2014-Sep-30 20:50 230 4 -1.0
2014-Sep-30 20:20 230 4 -1.0
2014-Sep-30 19:50 180 3 -0.0
2014-Sep-30 19:20 170 2 1.0
2014-Sep-30 18:50 230 6 -0.0
2014-Sep-30 18:20 210 5 1.0
2014-Sep-30 17:50 220 4 2.0
2014-Sep-30 17:20 190 3 1.0
2014-Sep-30 16:50 270 2 2.0
2014-Sep-30 16:20 290 2 3.0
2014-Sep-30 15:50 350 2 3.0
2014-Sep-30 15:20 330 8 5.4 4.0 Showers in the vicinity.
2014-Sep-30 14:50 300 7 5.4 5.0 Showers in the vicinity.
2014-Sep-30 14:20 310 9 5.0
2014-Sep-30 13:50 320 8 5.0
2014-Sep-30 13:20 320 9 5.4 5.0
2014-Sep-30 12:50 320 8 5.4 5.0
2014-Sep-30 12:20 310 10 5.0
2014-Sep-30 11:50 310 13 5.4 5.0
2014-Sep-30 11:20 310 10 5.4 5.0
2014-Sep-30 10:50 300 11 5.4 5.0
2014-Sep-30 10:20 300 11 5.4 5.0
2014-Sep-30 09:50 310 8 5.0
2014-Sep-30 09:20 310 8 5.0
2014-Sep-30 08:50 310 5 5.4 4.0
2014-Sep-30 08:20 310 7 4.0
2014-Sep-30 07:50 310 7 5.4 4.0
2014-Sep-30 07:20 310 8 5.4 4.0
2014-Sep-30 06:50 310 8 3.0
2014-Sep-30 06:20 320 8 3.0
2014-Sep-30 05:50 300 9 3.0
2014-Sep-30 05:20 310 8 2.0
2014-Sep-30 04:50 310 5 2.0
2014-Sep-30 04:20 310 5 2.0
2014-Sep-30 03:50 280 4 5.4 3.0
2014-Sep-30 03:20 300 5 5.4 3.0
2014-Sep-30 02:50 320 3 5.4 4.0
2014-Sep-30 02:20 330 5 5.4 4.0
2014-Sep-30 01:50 340 10 5.4 4.0
2014-Sep-30 01:20 340 11 5.4 4.0 Light rain showers.
2014-Sep-30 00:50 320 4 5.4 4.0 Light rain showers.
2014-Sep-30 00:20 330 7 5.4 4.0
2014-Sep-29 23:50 330 6 5.4 4.0
2014-Sep-29 23:20 330 7 5.4 4.0
2014-Sep-29 22:50 340 9 5.4 4.0
2014-Sep-29 22:20 340 7 5.4 4.0 Light drizzle.
2014-Sep-29 21:50 340 8 5.4 4.0 Light rain.
2014-Sep-29 21:20 340 8 5.4 5.0 Light rain.
2014-Sep-29 20:50 350 9 5.4 5.0 Light rain.
2014-Sep-29 20:20 330 8 5.4 5.0 Light rain.
2014-Sep-29 19:50 340 8 5.4 5.0 Light rain.
2014-Sep-29 19:20 340 10 5.4 5.0 Light rain.
2014-Sep-29 18:50 320 6 5.4 5.0 Light rain.
2014-Sep-29 18:20 330 4 5.4 5.0 Light rain.
2014-Sep-29 17:50 330 5 5.4 5.0
2014-Sep-29 17:20 320 6 5.4 5.0
2014-Sep-29 16:50 340 5 5.4 5.0
2014-Sep-29 16:20 340 4 5.4 5.0
2014-Sep-29 15:50 330 5 3.8 5.0
2014-Sep-29 15:20 320 5 5.4 5.0
2014-Sep-29 14:50 320 5 5.4 5.0
2014-Sep-29 14:20 340 3 5.4 5.0
2014-Sep-29 13:50 350 4 5.4 5.0 Light rain showers.
2014-Sep-29 13:20 280 6 1.6 5.0 Drizzle. Mist.
2014-Sep-29 12:50 280 7 2.3 5.0 Mist.
2014-Sep-29 12:20 240 5 4.9 6.0
2014-Sep-29 11:50 240 7 5.4 6.0
2014-Sep-29 11:20 240 7 5.4 6.0
2014-Sep-29 10:50 210 6 5.4 5.0
2014-Sep-29 10:20 220 6 5.4 5.0
2014-Sep-29 09:50 240 5 5.4 5.0
2014-Sep-29 09:20 220 5 5.4 5.0
2014-Sep-29 08:50 250 4 5.4 5.0
2014-Sep-29 08:20 250 4 5.4 5.0